Regional Weather Roundup
Issued by NWS

Home | Current Version | Previous Version | Graphics & Text | Print | Product List | Glossary On
Versions: 1 2 3 4 5 6 7 8 9 10 11 12 13 14 15 16 17 18 19 20 21 22 23 24 25 26 27 28 29 30 31 32 33 34 35 36 37 38 39 40 41 42 43 44 45 46 47 48 49 50
000
ASUS43 KMKX 230211
RWRWI

WISCONSIN REGIONAL WEATHER ROUNDUP
NATIONAL WEATHER SERVICE MILWAUKEE/SULLIVAN WI
900 PM CDT TUE AUG 22 2017

NOTE: "FAIR" INDICATES FEW OR NO CLOUDS BELOW 12,000 FEET WITH NO
SIGNIFICANT WEATHER AND/OR OBSTRUCTIONS TO VISIBILITY.

WIZ001-002-006>008-014>016-023>028-230300-
NORTHWEST WISCONSIN

CITY           SKY/WX    TMP DP  RH WIND       PRES   REMARKS
SUPERIOR ARPT    N/A     60  52  75 W8        29.98R
ASHLAND        CLOUDY    60  54  80 W6        29.96R
HAYWARD        CLOUDY    60  53  77 CALM      29.99R
SIREN          CLOUDY    64  49  59 W6        30.01S
CUMBERLAND     CLOUDY    57  50  77 W5        30.01R
RICE LAKE      CLOUDY    60  50  70 W3        30.01S
CHETEK         CLOUDY    61  50  66 W3        30.00S
LADYSMITH      CLOUDY    62  51  67 W6        30.00S
EAU CLAIRE     CLEAR     60  50  69 W7        29.99S
MENOMONIE      CLEAR     63  49  61 SW5       30.01S
NEW RICHMOND   CLEAR     59  48  67 W6        30.03R
OSCEOLA        CLEAR     61  50  68 W6        30.04S
$$

WIZ003>005-009-010-017-018-230300-
NORTH CENTRAL WISCONSIN

CITY           SKY/WX    TMP DP  RH WIND       PRES   REMARKS
MANITOWISH WTR MOCLDY    56  56 100 NW6       29.95R
ARBOR VITAE    PTCLDY    62  53  72 NW8       29.94R
WOODRUFF       PTCLDY    62  53  72 NW8       29.94R
RHINELANDER    PTCLDY    58  51  78 W9        29.95S
EAGLE RIVER    MOCLDY    57  49  73 W5        29.93S
LAND O LAKES   MOCLDY    56  54  92 W6        29.94S
PHILLIPS       CLOUDY    59  52  78 W5        29.97S
TOMAHAWK         N/A     56  49  78 W5        29.97R
MEDFORD        CLEAR     58  49  72 W3        29.98S
MERRILL        CLOUDY    61  48  63 NW9       29.97S
$$

WIZ029-030-035-036-043>047-230300-
CENTRAL WISCONSIN

CITY           SKY/WX    TMP DP  RH WIND       PRES   REMARKS
WAUSAU         CLEAR     63  49  60 NW9       29.95S
MOSINEE        PTCLDY    61  48  63 W8        29.98R
MARSHFIELD     CLEAR     59  48  67 W6        29.98S
STEVENS POINT  CLEAR     61  47  60 W5        29.98R
WAUPACA        CLEAR     66  49  54 W3        29.96R
WAUTOMA        CLEAR     63  51  65 W5        29.98R
WISC RAPIDS    CLEAR     62  50  64 W5        29.99R
CAMP DOUGLAS   CLEAR     55  50  82 W7        30.00R
$$

WIZ011>013-019>022-031-037>040-048>050-230300-
NORTHEAST WISCONSIN

CITY           SKY/WX    TMP DP  RH WIND       PRES   REMARKS
ANTIGO         CLEAR     57  50  75 NW7       29.95S
SHAWANO        CLEAR     64  49  57 W5        29.93R
OCONTO         CLEAR     63  50  62 W6        29.90R
STURGEON BAY   CLEAR     65  53  65 W6        29.91R
GREEN BAY      CLEAR     63  52  67 W7        29.93R
MANITOWOC      MOCLDY    64  52  64 NW5       29.93R
APPLETON       PTCLDY    63  45  51 NW7       29.94R
CLINTONVILLE   CLEAR     63  46  55 NW7       29.94R
OSHKOSH        CLEAR     64  49  57 W6        29.95R
$$

WIZ032>034-041-042-053>061-230300-
SOUTHWEST WISCONSIN

CITY           SKY/WX    TMP DP  RH WIND       PRES   REMARKS
LA CROSSE      CLEAR     66  54  63 NW8       30.01R
SPARTA         CLEAR     58  52  79 CALM      30.02R
VIROQUA        CLEAR     60  53  76 W5        30.03R
BOSCOBEL       CLEAR     61  55  81 CALM      30.02R
PRAIRIE DU CHI CLEAR     62  51  69 CALM      30.03R
PLATTEVILLE    CLEAR     61  53  73 W6        30.04R
$$

WIZ056-057-062-063-064-067-068-230300-
SOUTH CENTRAL WISCONSIN

CITY           SKY/WX    TMP DP  RH WIND       PRES   REMARKS
REEDSBURG      CLEAR     63  51  63 W3        30.00R
BARABOO/DELLS  CLEAR     63  48  59 W5        30.00R
LONE ROCK      PTCLDY    64  53  67 CALM      30.01R
MINERAL POINT  CLEAR     61  52  72 W3        30.03R
MADISON        PTCLDY    64  51  62 VRB3      29.99R
MIDDLETON      CLEAR     60  53  76 W3        30.01R
WATERTOWN      CLEAR     63  53  70 W5        29.98R
MONROE         CLEAR     63  50  63 NW8       30.01R
JANESVILLE     MOCLDY    63  52  67 W6        29.99R
$$

WIZ051-052-058>065-066-070>072-230300-
SOUTHEAST WISCONSIN

CITY           SKY/WX    TMP DP  RH WIND       PRES   REMARKS
MILWAUKEE      CLEAR     71  49  45 W7        29.96R
WAUKESHA       CLEAR     63  48  59 W7        29.98R
MILWAUKEE/TIMM CLEAR     64  46  52 W6        29.97R
RACINE         CLEAR     66  51  58 W5        29.98R
KENOSHA        CLEAR     63  51  65 W5        29.97R
FOND DU LAC    CLEAR     64  48  56 W7        29.96R
SHEBOYGAN      CLEAR     63  54  72 W6        29.94R
WEST BEND      CLEAR     64  48  55 W6        29.96R
JUNEAU         CLEAR     62  51  66 W5        29.98R
$$

LSZ147-162-230300-
LAKE SUPERIOR

STATION/POSITION TIME  TEMP    WIND        PRES    WAVE
                       AIR SEA DIR/SP/G            HT/PER
                 (UTC) (F)     (DEG/KT/KT) (MB)    (FT/S)
W MID LAKE BUOY  0150   62 60  280/ 16/ 19 1011.6R   2/ 4
DEVILS ISLAND    0100   63     280/ 14/ 16 1013.1R
SAXON HARBOR     0130   63     220/  4/  6 1013.2S
$$

LMZ867-665-643>646-230300-
LAKE MICHIGAN

STATION/POSITION TIME  TEMP    WIND        PRES    WAVE
                       AIR SEA DIR/SP/G            HT/PER
                 (UTC) (F)     (DEG/KT/KT) (MB)    (FT/S)
S GREEN BAY BUOY 0200   68 71  280/ 16/ 21 1012.5
N MID LAKE BUOY  0150   68 67  280/ 14/ 17 1011.0R   3/ 4
NORTHPORT PIER   0140   67     280/  9/ 15 1011.2R
KEWAUNEE LAKESHO 0148   64     300/  3/  5 1012.1R
SHEBOYGAN LAKESH 0200   68     270/  7/ 10 1013.1R
PORT WASHINGTON  0130   69     270/  4/  6 1014.6R
ATWATER BUOY     0109   70 68  280/  8/ 10 1014.3R
MILWAUKEE LAKESH 0150   70     290/  7/  9   N/A
S MID LAKE BUOY  0150   72 71  330/ 16/ 19 1013.5R   4/ 5
KENOSHA   LAKESH 0200   69     300/  8/ 10 1014.6
$$

TC  - TEMPERATURE IN CELSIUS
VSB - VISIBILITY IN STATUTE MILES
WCI - WIND CHILL INDEX
HX  - HEAT INDEX





USA.gov is the U.S. government's official web portal to all federal, state and local government web resources and services.